Time,TemperatureF,DewpointF,PressureIn,WindDirection,WindDirectionDegrees,WindSpeedMPH,WindSpeedGustMPH,Humidity,HourlyPrecipIn,Conditions,Clouds,dailyrainin,SolarRadiationWatts/m^2,SoftwareType,DateUTC
2013-03-11 00:12:00,37.0,32.0,-100.00,NE,49,1.0,2.0,82,-99.99,,,0.00,0.120000,,2013-03-11 07:12:00,
2013-03-11 01:12:00,35.0,32.0,-100.00,NE,44,1.0,2.0,87,-99.99,,,0.00,0.120000,,2013-03-11 08:12:00,
2013-03-11 02:12:00,35.0,33.0,-100.00,West,272,5.0,7.0,89,-99.99,,,0.00,0.120000,,2013-03-11 09:12:00,
2013-03-11 03:12:00,36.0,31.0,-100.00,West,274,4.0,8.0,82,-99.99,,,0.00,0.120000,,2013-03-11 10:12:00,
2013-03-11 04:12:00,33.0,30.0,-100.00,NE,52,3.0,6.0,89,-99.99,,,0.00,0.120000,,2013-03-11 11:12:00,
2013-03-11 05:12:00,32.0,30.0,-100.00,North,3,1.0,2.0,90,-99.99,,,0.00,0.120000,,2013-03-11 12:12:00,
2013-03-11 06:12:00,32.0,30.0,-100.00,ENE,62,1.0,3.0,91,-99.99,,,0.00,0.120000,,2013-03-11 13:12:00,
2013-03-11 07:12:00,32.0,29.0,-100.00,WNW,282,3.0,5.0,89,-99.99,,,0.00,0.120000,,2013-03-11 14:12:00,
2013-03-11 08:12:00,31.0,29.0,-100.00,ESE,107,1.0,4.0,92,-99.99,,,0.00,1.630000,,2013-03-11 15:12:00,
2013-03-11 09:12:00,31.0,29.0,-100.00,WNW,285,0.0,4.0,92,-99.99,,,0.00,53.110001,,2013-03-11 16:12:00,
2013-03-11 12:12:00,38.0,31.0,-100.00,East,101,2.0,6.0,73,-99.99,,,0.00,470.809998,,2013-03-11 19:12:00,
2013-03-11 13:12:00,41.0,32.0,-100.00,East,98,3.0,5.0,70,-99.99,,,0.00,611.669983,,2013-03-11 20:12:00,
2013-03-11 14:12:00,43.0,33.0,-100.00,East,84,4.0,5.0,66,-99.99,,,0.00,690.929993,,2013-03-11 21:12:00,
2013-03-11 15:12:00,51.0,27.0,-100.00,WSW,240,3.0,4.0,38,-99.99,,,0.00,660.830017,,2013-03-11 22:12:00,
2013-03-11 16:12:00,52.0,24.0,-100.00,WSW,245,4.0,6.0,33,-99.99,,,0.00,600.159973,,2013-03-11 23:12:00,
2013-03-11 17:12:00,53.0,20.0,-100.00,SW,232,2.0,3.0,27,-99.99,,,0.00,405.489990,,2013-03-12 00:12:00,
2013-03-11 18:12:00,50.0,20.0,-100.00,West,261,3.0,5.0,30,-99.99,,,0.00,136.210007,,2013-03-12 01:12:00,
2013-03-11 19:12:00,49.0,24.0,-100.00,SW,232,3.0,5.0,36,-99.99,,,0.00,44.509998,,2013-03-12 02:12:00,
2013-03-11 20:12:00,47.0,23.0,-100.00,NW,314,2.0,4.0,38,-99.99,,,0.00,0.580000,,2013-03-12 03:12:00,
2013-03-11 21:12:00,46.0,26.0,-100.00,ENE,75,1.0,3.0,45,-99.99,,,0.00,0.000000,,2013-03-12 04:12:00,
2013-03-11 22:12:00,45.0,27.0,-100.00,East,87,2.0,5.0,50,-99.99,,,-99.99,0.000000,,2013-03-12 05:12:00,
2013-03-11 23:12:00,44.0,29.0,-100.00,ENE,61,1.0,3.0,56,-99.99,,,0.00,0.000000,,2013-03-12 06:12:00,